Location: Bruneau Dunes Observatory
(42.9024°N, 115.6902°W)
Time: 02:25:44
(UTC-07:00)

Cosmos 2333 Rocket - Visible Passes

Search period start: 13 December 2017 00:00
Search period end: 23 December 2017 00:00
Orbit: 837 x 864 km, 70.8° (Epoch: 13 December)

Date Brightness Start Highest point End Pass type
(mag) Time Alt. Az. Time Alt. Az. Time Alt. Az.
16 Dec 3.4 07:23:52 10° NNW 07:29:19 40° ENE 07:34:41 10° SE visible
17 Dec 3.4 07:11:34 10° NNW 07:17:00 40° ENE 07:22:23 10° SE visible
18 Dec 3.4 06:59:16 10° NNW 07:04:42 40° ENE 07:10:04 10° SE visible
19 Dec 3.4 06:46:57 10° NNW 06:52:24 40° ENE 06:57:46 10° SE visible
20 Dec 3.4 06:34:40 10° NNW 06:40:06 40° ENE 06:45:28 10° SE visible
21 Dec 3.4 06:22:22 10° NNW 06:27:47 40° ENE 06:33:09 10° SE visible
22 Dec 3.4 06:10:09 10° NNW 06:15:29 40° ENE 06:20:51 10° SE visible
